Tracking 18980 objects as of 21-Feb-2018
HD Live streaming from Space Station
objects crossing your sky now

INTELSAT 604

Track INTELSAT 604 now!
INTELSAT 604 is classified as:


NORAD ID: 20667
Int'l Code: 1990-056A
Perigee: 36,269.8 km
Apogee: 36,364.7 km
Inclination: 12.4 °
Period: 1,462.9 minutes
Semi major axis: 42688 km
RCS: 9.3925 m2 (large)
Launch date: June 23, 1990
Source: International Telecommunications Satellite Organization (ITSO)
Launch site: AIR FORCE EASTERN TEST RANGE (AFETR)

Inclined orbit; 64 C-band, 24 Ku-band; Broadcasting, business services, direct-to-home TV broadcasting, telecommunications, VSAT networks; Asia Pacific region.
aabbcc
Your satellite tracking list
Your tracking list is empty




NASA's NSSDC Master Catalog

Two Line Element Set (TLE):
1 20667U 90056A   18052.48520944 -.00000011  00000-0  00000+0 0  9995
2 20667  12.3853  32.7200 0011117 263.3508 264.5759  0.98432786103343
Source of the keplerian elements: AFSPC